Location: Sihaung
(22.8641°N, 94.0549°E)
Time: 16:55:13
(UTC+00:00)

Exosat Rocket - Pass Details

Date: 03 March 2021
Orbit: 759 x 2515 km, 72.3° (Epoch: 13 April)

Event Time Altitude Azimuth Distance (km) Brightness Sun altitude
Rises 22:16:59 0° 339° (NNW) 5,062 7.5 -25.2°
Reaches altitude 10° 22:20:36 10° 337° (NNW) 3,802 6.9 -24.4°
Maximum altitude 22:29:21 63° 259° (W) 1,321 4.3 -22.3°
Drops below altitude 10° 22:35:27 10° 179° (S) 2,689 6.3 -20.9°
Sets 22:37:38 0° 175° (S) 3,499 7.0 -20.4°
